#timestamp,LO_Frequency,Hit,StdDev 
1619820015.4,286046999.7,N
1619820035.2,286046999.7,N
1619820055.0,286047002.7,N
1619820055.9,286047002.7,N
1619820075.8,286046999.1,N
1619820095.6,286046999.5,N
1619820115.5,286046999.9,N
1619820135.3,286047000.3,N
1619820155.1,286046998.1,N
1619820175.9,286047000.0,N
1619820195.7,286047000.0,N
1619820215.5,286047000.8,N
1619820235.4,286047001.5,N
1619820255.2,286047002.7,N
1619820275.1,286046998.2,N
1619820276.0,286046998.2,N
1619820295.8,286047001.8,N
1619820315.6,286047001.3,N
1619820335.5,286047002.7,N
1619820355.3,286047002.2,N
1619820375.2,286047002.8,N
1619820395.9,286047000.7,N
1619820415.7,286046999.9,N
1619820435.6,286047000.6,N
1619820455.4,286046999.8,N
1619820475.2,286046998.6,N
1619820495.1,286047001.0,N
1619820496.0,286047001.0,N
1619820515.8,286047001.2,N
1619820535.7,286047001.5,N
1619820555.5,286047002.4,N
1619820575.3,286046998.1,N
1619820595.2,286046999.4,N
1619820615.0,286047000.2,N
1619820615.9,286047000.2,N
1619820635.7,286047000.7,N
1619820655.6,286046999.8,N
1619820675.4,286047002.8,N
1619820695.3,286047002.3,N
1619820715.1,286047004.3,Y
1619820735.8,286047002.8,P
1619820755.7,286047004.4,P
1619820775.5,286047003.3,N
1619820795.4,286047003.5,N
1619820815.2,286047003.2,N
1619820835.0,286047003.4,Y
1619820835.9,286047003.4,P
1619820855.8,286047000.4,N
1619820875.6,286047000.6,N
1619820895.4,286047002.3,N
1619820915.3,286047002.5,N
1619820935.1,286047001.7,N
1619820955.9,286047002.2,N
1619820975.7,286047001.9,N
1619820995.5,286047002.8,N
1619821015.4,286047002.8,Y
1619821035.2,286046998.3,P
1619821055.0,286046997.1,N
1619821055.9,286046997.1,N
1619821075.8,286046998.9,N
1619821095.6,286046999.4,N
1619821115.5,286046999.1,N
1619821135.3,286046999.1,N
1619821155.1,286046999.0,N
1619821175.9,286046999.4,N
1619821195.7,286046998.8,N
1619821215.5,286046998.2,N
1619821235.4,286046998.9,N
1619821255.2,286046999.6,N
1619821275.1,286046997.0,N
1619821276.0,286046997.0,N
1619821295.8,286046997.3,N
1619821315.6,286046997.7,N
1619821335.5,286046998.0,N
1619821355.3,286046998.1,N
1619821375.2,286046998.4,N
1619821395.9,286046996.9,N
1619821415.7,286046999.4,N
1619821435.6,286046999.1,N
1619821455.4,286046998.7,N
1619821475.2,286046999.2,N
1619821495.1,286046996.7,N
1619821496.0,286046996.7,N
1619821515.8,286046998.5,N
1619821535.7,286047000.9,N
1619821555.5,286046998.8,N
1619821575.3,286046999.5,N
1619821595.2,286046999.4,N
1619821615.9,286046999.5,N
1619821635.7,286046996.9,Y
1619821655.6,286047002.4,P
1619821675.4,286047005.1,N
1619821695.3,286047008.7,P
1619821715.1,286047006.6,N
1619821716.0,286047006.6,N
1619821735.8,286047001.3,N
1619821755.7,286047002.6,N
1619821775.5,286047004.4,N
1619821795.3,286047007.2,N
1619821815.2,286047007.1,N
1619821835.0,286047005.6,N
1619821835.9,286047005.6,N
1619821855.8,286047003.6,N
1619821875.6,286047003.1,N
1619821895.4,286047004.0,N
1619821915.3,286047002.3,N
1619821935.1,286047001.0,N
1619821955.8,286047001.0,N
1619821975.7,286047000.7,N
1619821995.5,286047000.0,N
1619822015.4,286047000.2,N
1619822035.2,286047003.8,N
1619822055.0,286047001.8,N
1619822055.9,286047001.8,N
1619822075.8,286047000.4,N
1619822095.6,286047001.9,N
1619822115.4,286047001.3,N
1619822135.3,286047002.3,N
1619822155.1,286047001.4,N
1619822175.9,286047001.3,N
1619822195.7,286047001.3,N
1619822215.5,286047001.6,N
1619822235.4,286047001.4,N
1619822255.2,286047004.1,N
1619822275.0,286047006.0,N
1619822275.9,286047006.0,N
1619822295.8,286047004.9,N
1619822315.6,286047006.9,Y
1619822335.5,286047003.3,P
1619822355.3,286047001.3,P
1619822375.1,286047001.8,N
1619822395.9,286047001.9,N
1619822415.7,286047000.8,N
1619822435.5,286046998.5,N
1619822455.4,286047000.3,N
1619822475.2,286047002.5,N
1619822495.1,286047002.8,N
1619822496.0,286047002.8,N
1619822515.8,286047000.6,N
1619822535.6,286047004.3,Y
1619822555.5,286047001.9,P
1619822575.3,286047002.5,P
1619822595.1,286047000.4,N
1619822615.9,286046999.8,N
1619822635.7,286047000.6,N
1619822655.6,286046998.7,N
1619822675.4,286046996.6,N
1619822695.2,286047001.2,N
1619822715.1,286047000.1,N
1619822716.0,286047000.1,N
1619822735.8,286047001.5,N
1619822755.7,286047002.0,N
1619822775.5,286047004.4,N
1619822795.3,286046999.9,N
1619822815.2,286047002.6,N
1619822835.0,286047002.0,N
1619822835.9,286047002.0,N
1619822855.7,286047004.1,N
1619822875.6,286047003.2,N
1619822895.4,286047004.2,N
1619822915.3,286047002.1,N
1619822935.1,286047001.8,N
1619822936.0,286047001.8,N
1619822955.8,286047001.9,N
1619822975.7,286047000.6,N
1619822995.5,286046998.7,N
1619823015.3,286046996.5,N
1619823035.2,286046998.9,N
1619823055.0,286046999.5,N
1619823055.9,286046999.5,N
1619823075.8,286046999.2,N
1619823095.6,286046998.7,N
1619823115.4,286046998.5,N
1619823135.3,286046999.4,N
1619823155.1,286046998.2,N
1619823175.9,286046998.7,N
1619823195.7,286046999.1,N
1619823215.5,286046999.1,N
1619823235.4,286047001.2,N
1619823255.2,286047001.5,N
1619823275.0,286047000.2,N
1619823276.0,286047000.2,N
1619823295.8,286047001.8,N
1619823315.6,286047004.2,N
1619823335.5,286047003.7,N
1619823355.3,286047003.4,N
1619823375.1,286047001.9,N
1619823395.9,286047000.3,N
1619823415.7,286046999.0,N
1619823435.6,286046999.5,N
1619823455.4,286047001.1,N
1619823475.2,286046998.5,N
1619823495.1,286046998.7,N
1619823496.0,286046998.7,N
1619823515.8,286046999.1,N
1619823535.6,286046999.4,N
1619823555.5,286046998.1,N
1619823575.3,286047000.9,N
1619823595.2,286047000.4,N
